User: anonymous   Login
Location: Unspecified
(0.0000°N, 0.0000°E)
Time: 08:34:56
(UTC+00:00)
Language:

SEEDS - Orbit

View from above orbital plane
View from above orbital plane
View from above satellite
View from above satellite

Ground track
Ground track

The orbit data is extracted from the following two-line orbital elements,

1 32791U 08021J   19077.81636913  .00000277  00000-0  33544-4 0  9993
2 32791  97.5303  87.7367 0013417 177.1858 182.9439 14.90754365590422
Epoch (UTC): 18 March 2019 19:35:34
Eccentricity: 0.0013417
inclination: 97.5303°
perigee height: 586 km
apogee height: 605 km
right ascension of ascending node: 87.7367°
argument of perigee: 177.1858°
revolutions per day: 14.90754365
mean anomaly at epoch: 182.9439°
orbit number at epoch: 59042

The dashed part of the orbit path shows where the satellite is in the earth's shadow,  

DLR